Volver al catálogo

SL-6 R/B(2)

ActivoHEO
NORAD 13298·ROCKET BODY·🇷🇺 Russia

Lanzado Jun 25, 1982 desde Plesetsk Cosmodrome

Loading…

Próximos Pases (próximas 24 horas)

TLE

ActualizadoSource: Space-Track

Época: Sep 14, 2026, 11:28 UTC

1 13298U 82064D   26257.47801183 -.00000667  00000-0  00000-0 0  9997
2 13298  67.2637  70.4208 6323372   5.7164 358.9402  2.03271957251438

Sigue SL-6 R/B(2) en tiempo real con AllMySat

Download on the App Store